| time (UTC) | temp F | wind direction | speed MPH | gust MPH | rain 1hr in | rain 24hr in | rain mn in | humidity % | barometer mb |
| 20260504160313 | 72 | 0 | 0.0 | 3.0 | 0.00 | 0.06 | 0.06 | 55 | 1009.6 |
| 20260504150801 | 67 | 180 | 0.0 | 6.0 | 0.00 | 0.06 | 0.06 | 61 | 1010.1 |
| 20260504150303 | 66 | 200 | 0.0 | 4.0 | 0.00 | 0.06 | 0.06 | 62 | 1010.3 |
| 20260504141246 | 61 | 219 | 0.0 | 3.0 | 0.00 | 0.06 | 0.06 | 71 | 1010.5 |
| 20260504140745 | 60 | 225 | 0.0 | 1.0 | 0.00 | 0.06 | 0.06 | 72 | 1010.6 |
| 20260504140510 | 59 | 234 | 0.0 | 0.0 | 0.00 | 0.06 | 0.06 | 74 | 1010.7 |
| 20260504130733 | 54 | 254 | 0.0 | 0.0 | 0.01 | 0.06 | 0.06 | 84 | 1011.4 |
| 20260504130232 | 54 | 254 | 0.0 | 0.0 | 0.01 | 0.06 | 0.06 | 85 | 1011.4 |
| 20260504120221 | 53 | 271 | 0.0 | 0.0 | 0.04 | 0.05 | 0.05 | 84 | 1012.3 |
| 20260504110703 | 56 | 255 | 0.0 | 1.0 | 0.00 | 0.01 | 0.01 | 66 | 1011.4 |
| 20260504110201 | 56 | 275 | 0.0 | 5.0 | 0.00 | 0.01 | 0.01 | 66 | 1011.5 |
| 20260504100143 | 55 | 283 | 0.0 | 1.0 | 0.01 | 0.01 | 0.01 | 69 | 1011.9 |
| 20260504081620 | 59 | 200 | 0.0 | 8.0 | 0.00 | 0.00 | 0.00 | 57 | 1010.5 |
| 20260504081119 | 59 | 216 | 0.0 | 8.0 | 0.00 | 0.00 | 0.00 | 57 | 1010.6 |
| 20260504080619 | 59 | 128 | 0.0 | 3.0 | 0.00 | 0.00 | 0.00 | 57 | 1010.7 |
| 20260504080115 | 59 | 157 | 0.0 | 1.0 | 0.00 | 0.00 | 0.00 | 58 | 1010.6 |
| 20260504070109 | 58 | 255 | 0.0 | 4.0 | 0.00 | 0.00 | 0.00 | 60 | 1011.6 |
| 20260504050537 | 60 | 178 | 0.0 | 7.0 | 0.00 | 0.00 | 0.00 | 53 | 1012.6 |
| 20260504045536 | 59 | 156 | 0.0 | 6.0 | 0.00 | 0.00 | 0.00 | 54 | 1012.8 |
| 20260504045253 | 58 | 211 | 0.0 | 2.0 | 0.00 | 0.00 | 0.00 | 56 | 1012.8 |
| 20260504044528 | 57 | 210 | 0.0 | 2.0 | 0.00 | 0.00 | 0.00 | 60 | 1012.8 |
| 20260504044028 | 55 | 190 | 0.0 | 1.0 | 0.00 | 0.00 | 0.00 | 67 | 1012.9 |
| 20260504043525 | 53 | 188 | 0.0 | 0.0 | 0.00 | 0.00 | 0.00 | 73 | 1013.1 |
| 20260504043024 | 53 | 196 | 0.0 | 0.0 | 0.00 | 0.00 | 0.00 | 73 | 1013.1 |
| 20260504042523 | 52 | 196 | 0.0 | 0.0 | 0.00 | 0.00 | 0.00 | 73 | 1013.0 |
| 20260504042023 | 52 | 196 | 0.0 | 0.0 | 0.00 | 0.00 | 0.00 | 73 | 1012.8 |
| 20260504041524 | 52 | 196 | 0.0 | 0.0 | 0.00 | 0.00 | 0.00 | 75 | 1013.1 |
| 20260504041017 | 52 | 196 | 0.0 | 0.0 | 0.00 | 0.00 | 0.00 | 73 | 1013.1 |
| 20260504040517 | 52 | 196 | 0.0 | 0.0 | 0.00 | 0.00 | 0.00 | 74 | 1013.1 |
| 20260504040244 | 51 | 196 | 0.0 | 0.0 | 0.00 | 0.00 | 0.00 | 74 | 1013.1 |
| 20260504035733 | 51 | 196 | 0.0 | 0.0 | 0.00 | 0.00 | 0.00 | 74 | 1013.0 |
| 20260504035008 | 51 | 196 | 0.0 | 0.0 | 0.00 | 0.00 | 0.00 | 75 | 1013.2 |
| 20260504034506 | 51 | 196 | 0.0 | 0.0 | 0.00 | 0.00 | 0.00 | 74 | 1013.3 |
| 20260504034004 | 51 | 196 | 0.0 | 0.0 | 0.00 | 0.00 | 0.00 | 73 | 1013.3 |
| 20260504033502 | 52 | 196 | 0.0 | 0.0 | 0.00 | 0.00 | 0.00 | 72 | 1013.3 |
| 20260504032959 | 52 | 196 | 0.0 | 0.0 | 0.00 | 0.00 | 0.00 | 72 | 1013.5 |
| 20260504032720 | 51 | 196 | 0.0 | 0.0 | 0.00 | 0.00 | 0.00 | 74 | 1013.5 |
| 20260504031958 | 51 | 196 | 0.0 | 0.0 | 0.00 | 0.00 | 0.00 | 73 | 1013.6 |
| 20260504031457 | 51 | 196 | 0.0 | 0.0 | 0.00 | 0.00 | 0.00 | 73 | 1013.7 |
| 20260504031002 | 51 | 196 | 0.0 | 0.0 | 0.00 | 0.00 | 0.00 | 74 | 1013.7 |
| 20260504030456 | 51 | 196 | 0.0 | 0.0 | 0.00 | 0.00 | 0.00 | 74 | 1013.8 |
| 20260504030218 | 52 | 196 | 0.0 | 0.0 | 0.00 | 0.00 | 0.00 | 71 | 1013.9 |
| 20260504025454 | 52 | 196 | 0.0 | 0.0 | 0.00 | 0.00 | 0.00 | 71 | 1013.8 |
| 20260504024952 | 52 | 196 | 0.0 | 0.0 | 0.00 | 0.00 | 0.00 | 71 | 1013.9 |
| 20260504024451 | 52 | 196 | 0.0 | 0.0 | 0.00 | 0.00 | 0.00 | 71 | 1013.9 |
| 20260504023949 | 52 | 196 | 0.0 | 0.0 | 0.00 | 0.00 | 0.00 | 70 | 1013.9 |
| 20260504023444 | 52 | 196 | 0.0 | 0.0 | 0.00 | 0.00 | 0.00 | 70 | 1013.9 |
| 20260504022943 | 52 | 196 | 0.0 | 0.0 | 0.00 | 0.00 | 0.00 | 71 | 1013.9 |
| 20260504022439 | 52 | 196 | 0.0 | 0.0 | 0.00 | 0.00 | 0.00 | 70 | 1014.0 |
| 20260504021938 | 53 | 196 | 0.0 | 0.0 | 0.00 | 0.00 | 0.00 | 70 | 1014.0 |
| 20260504021439 | 53 | 196 | 0.0 | 0.0 | 0.00 | 0.00 | 0.00 | 68 | 1014.0 |
| 20260504020936 | 53 | 196 | 0.0 | 0.0 | 0.00 | 0.00 | 0.00 | 67 | 1014.1 |
| 20260504020435 | 53 | 196 | 0.0 | 0.0 | 0.00 | 0.00 | 0.00 | 66 | 1014.0 |
| 20260504015935 | 53 | 196 | 0.0 | 0.0 | 0.00 | 0.00 | 0.00 | 67 | 1014.0 |
| 20260504015433 | 54 | 196 | 0.0 | 0.0 | 0.00 | 0.00 | 0.00 | 66 | 1013.9 |
| 20260504014934 | 54 | 196 | 0.0 | 0.0 | 0.00 | 0.00 | 0.00 | 66 | 1013.9 |
| 20260504014427 | 54 | 196 | 0.0 | 0.0 | 0.00 | 0.00 | 0.00 | 65 | 1014.0 |
| 20260504013926 | 55 | 196 | 0.0 | 0.0 | 0.00 | 0.00 | 0.00 | 63 | 1013.9 |
| 20260504013424 | 55 | 196 | 0.0 | 0.0 | 0.00 | 0.00 | 0.00 | 63 | 1013.9 |
| 20260504012922 | 55 | 196 | 0.0 | 0.0 | 0.00 | 0.00 | 0.00 | 61 | 1013.9 |
| 20260504012416 | 55 | 196 | 0.0 | 0.0 | 0.00 | 0.00 | 0.00 | 61 | 1013.9 |
| 20260504012146 | 56 | 196 | 0.0 | 0.0 | 0.00 | 0.00 | 0.00 | 59 | 1013.9 |
| 20260504011429 | 56 | 196 | 0.0 | 0.0 | 0.00 | 0.00 | 0.00 | 57 | 1013.9 |
| 20260504010910 | 57 | 196 | 0.0 | 0.0 | 0.00 | 0.00 | 0.00 | 57 | 1013.7 |
| 20260504010408 | 57 | 196 | 0.0 | 0.0 | 0.00 | 0.00 | 0.00 | 56 | 1013.5 |
| 20260504005909 | 58 | 196 | 0.0 | 0.0 | 0.00 | 0.00 | 0.00 | 60 | 1013.4 |
| 20260504005401 | 58 | 196 | 0.0 | 0.0 | 0.00 | 0.00 | 0.00 | 58 | 1013.3 |
| 20260504004900 | 59 | 196 | 0.0 | 0.0 | 0.00 | 0.00 | 0.00 | 54 | 1013.4 |
| 20260504004402 | 59 | 196 | 0.0 | 0.0 | 0.00 | 0.00 | 0.00 | 52 | 1013.3 |
| 20260504003858 | 60 | 196 | 0.0 | 0.0 | 0.00 | 0.00 | 0.00 | 50 | 1013.4 |
| 20260504003358 | 61 | 196 | 0.0 | 0.0 | 0.00 | 0.00 | 0.00 | 48 | 1013.3 |
| 20260504002853 | 61 | 196 | 0.0 | 0.0 | 0.00 | 0.00 | 0.00 | 46 | 1013.3 |
| 20260504002351 | 62 | 196 | 0.0 | 2.0 | 0.00 | 0.00 | 0.00 | 46 | 1013.2 |
| 20260504002109 | 62 | 196 | 0.0 | 2.0 | 0.00 | 0.00 | 0.00 | 46 | 1013.1 |
| 20260504001346 | 62 | 198 | 0.0 | 0.0 | 0.00 | 0.00 | 0.00 | 46 | 1013.2 |
| 20260504000342 | 63 | 199 | 0.0 | 1.0 | 0.00 | 0.00 | 0.00 | 45 | 1013.1 |
| 20260503235840 | 63 | 199 | 0.0 | 1.0 | 0.00 | 0.00 | 0.00 | 44 | 1013.1 |
| 20260503235341 | 63 | 199 | 0.0 | 1.0 | 0.00 | 0.00 | 0.00 | 44 | 1013.1 |
| 20260503234843 | 63 | 199 | 0.0 | 1.0 | 0.00 | 0.00 | 0.00 | 44 | 1013.1 |
| 20260503234338 | 63 | 201 | 0.0 | 1.0 | 0.00 | 0.00 | 0.00 | 44 | 1013.1 |
| 20260503233838 | 64 | 200 | 0.0 | 4.0 | 0.00 | 0.00 | 0.00 | 43 | 1013.2 |
| 20260503232837 | 64 | 183 | 0.0 | 2.0 | 0.00 | 0.00 | 0.00 | 42 | 1013.1 |
| 20260503232336 | 64 | 180 | 0.0 | 1.0 | 0.00 | 0.00 | 0.00 | 42 | 1013.1 |
| 20260503231835 | 64 | 180 | 0.0 | 1.0 | 0.00 | 0.00 | 0.00 | 41 | 1013.2 |
| 20260503231334 | 64 | 180 | 1.0 | 5.0 | 0.00 | 0.00 | 0.00 | 41 | 1013.2 |
| 20260503231102 | 65 | 208 | 0.0 | 5.0 | 0.00 | 0.00 | 0.00 | 40 | 1013.3 |
| 20260503230329 | 65 | 143 | 0.0 | 3.0 | 0.00 | 0.00 | 0.00 | 41 | 1013.4 |
| 20260503230054 | 65 | 96 | 0.0 | 2.0 | 0.00 | 0.00 | 0.00 | 42 | 1013.5 |
| 20260503225332 | 64 | 103 | 0.0 | 2.0 | 0.00 | 0.00 | 0.00 | 42 | 1013.7 |
| 20260503224821 | 65 | 224 | 0.0 | 2.0 | 0.00 | 0.00 | 0.00 | 41 | 1013.8 |
| 20260503224322 | 64 | 198 | 0.0 | 4.0 | 0.00 | 0.00 | 0.00 | 41 | 1013.8 |
| 20260503224045 | 65 | 209 | 1.0 | 6.0 | 0.00 | 0.00 | 0.00 | 40 | 1013.9 |
| 20260503223316 | 65 | 285 | 1.0 | 6.0 | 0.00 | 0.00 | 0.00 | 40 | 1014.1 |
| 20260503222816 | 65 | 128 | 1.0 | 6.0 | 0.00 | 0.00 | 0.00 | 39 | 1014.1 |
| 20260503222316 | 65 | 160 | 1.0 | 6.0 | 0.00 | 0.00 | 0.00 | 38 | 1014.2 |
| 20260503221810 | 65 | 134 | 1.0 | 6.0 | 0.00 | 0.00 | 0.00 | 39 | 1014.3 |
| 20260503221310 | 65 | 180 | 1.0 | 6.0 | 0.00 | 0.00 | 0.00 | 39 | 1014.1 |
| 20260503221037 | 66 | 152 | 1.0 | 4.0 | 0.00 | 0.00 | 0.00 | 39 | 1014.1 |
| 20260503220307 | 66 | 146 | 1.0 | 4.0 | 0.00 | 0.00 | 0.00 | 38 | 1014.1 |
| 20260503215806 | 66 | 169 | 1.0 | 6.0 | 0.00 | 0.00 | 0.00 | 37 | 1014.3 |
| 20260503215526 | 66 | 182 | 1.0 | 6.0 | 0.00 | 0.00 | 0.00 | 35 | 1014.6 |
| 20260503215034 | 66 | 333 | 1.0 | 11.0 | 0.00 | 0.00 | 0.00 | 37 | 1014.7 |
| 20260503214309 | 66 | 273 | 1.0 | 11.0 | 0.00 | 0.00 | 0.00 | 36 | 1014.8 |
| 20260503213806 | 66 | 344 | 2.0 | 9.0 | 0.00 | 0.00 | 0.00 | 36 | 1014.7 |
| 20260503213535 | 66 | 194 | 2.0 | 9.0 | 0.00 | 0.00 | 0.00 | 35 | 1015.0 |
| 20260503212806 | 66 | 302 | 1.0 | 7.0 | 0.00 | 0.00 | 0.00 | 35 | 1015.0 |
| 20260503212307 | 66 | 284 | 1.0 | 8.0 | 0.00 | 0.00 | 0.00 | 34 | 1015.2 |
| 20260503211806 | 66 | 111 | 1.0 | 8.0 | 0.00 | 0.00 | 0.00 | 35 | 1015.3 |
| 20260503211530 | 66 | 223 | 1.0 | 7.0 | 0.00 | 0.00 | 0.00 | 35 | 1015.0 |
| 20260503210804 | 66 | 278 | 1.0 | 4.0 | 0.00 | 0.00 | 0.00 | 35 | 1014.8 |
| 20260503210304 | 66 | 211 | 0.0 | 3.0 | 0.00 | 0.00 | 0.00 | 36 | 1014.7 |
| 20260503205800 | 66 | 288 | 0.0 | 7.0 | 0.00 | 0.00 | 0.00 | 36 | 1015.0 |
| 20260503205259 | 66 | 93 | 1.0 | 7.0 | 0.00 | 0.00 | 0.00 | 34 | 1015.3 |
| 20260503204758 | 65 | 258 | 1.0 | 6.0 | 0.00 | 0.00 | 0.00 | 36 | 1015.4 |
| 20260503204256 | 64 | 148 | 1.0 | 6.0 | 0.00 | 0.00 | 0.00 | 34 | 1015.5 |
| 20260503203756 | 65 | 170 | 1.0 | 4.0 | 0.00 | 0.00 | 0.00 | 34 | 1015.5 |
| 20260503202757 | 66 | 232 | 2.0 | 9.0 | 0.00 | 0.00 | 0.00 | 35 | 1015.6 |
| 20260503202258 | 66 | 273 | 1.0 | 9.0 | 0.00 | 0.00 | 0.00 | 32 | 1015.7 |
| 20260503201757 | 66 | 103 | 1.0 | 4.0 | 0.00 | 0.00 | 0.00 | 34 | 1015.8 |
| 20260503201254 | 66 | 200 | 1.0 | 4.0 | 0.00 | 0.00 | 0.00 | 32 | 1015.8 |
| 20260503201011 | 66 | 266 | 1.0 | 16.0 | 0.00 | 0.00 | 0.00 | 33 | 1015.9 |
| 20260503200255 | 66 | 283 | 2.0 | 16.0 | 0.00 | 0.00 | 0.00 | 34 | 1016.0 |
| 20260503195754 | 66 | 197 | 1.0 | 6.0 | 0.00 | 0.00 | 0.00 | 33 | 1016.1 |
| 20260503195252 | 66 | 151 | 1.0 | 6.0 | 0.00 | 0.00 | 0.00 | 33 | 1016.3 |
| 20260503194754 | 66 | 258 | 1.0 | 4.0 | 0.00 | 0.00 | 0.00 | 35 | 1015.7 |
| 20260503194254 | 65 | 148 | 1.0 | 4.0 | 0.00 | 0.00 | 0.00 | 36 | 1015.8 |
| 20260503193752 | 66 | 138 | 1.0 | 7.0 | 0.00 | 0.00 | 0.00 | 32 | 1016.0 |
| 20260503193254 | 65 | 307 | 1.0 | 7.0 | 0.00 | 0.00 | 0.00 | 33 | 1016.0 |
| 20260503192752 | 65 | 216 | 1.0 | 5.0 | 0.00 | 0.00 | 0.00 | 35 | 1016.1 |
| 20260503192249 | 65 | 190 | 0.0 | 5.0 | 0.00 | 0.00 | 0.00 | 34 | 1016.2 |
| 20260503192005 | 64 | 121 | 1.0 | 11.0 | 0.00 | 0.00 | 0.00 | 35 | 1016.3 |
| 20260503191514 | 64 | 195 | 1.0 | 11.0 | 0.00 | 0.00 | 0.00 | 34 | 1016.4 |
| 20260503190741 | 65 | 315 | 0.0 | 9.0 | 0.00 | 0.00 | 0.00 | 34 | 1016.4 |
| 20260503190245 | 64 | 172 | 0.0 | 2.0 | 0.00 | 0.00 | 0.00 | 33 | 1016.5 |
| 20260503185742 | 64 | 0.0 | 0.0 | 0.00 | 0.00 | 0.00 | 35 | 1016.7 | |
| 20260503185237 | 64 | 0.0 | 0.0 | 0.00 | 0.00 | 0.00 | 35 | 1016.7 | |
| 20260503184718 | 64 | 0 | 0.0 | 0.0 | 0.00 | 0.00 | 0.00 | 35 | 1016.8 |
| 20260503184213 | 64 | 0 | 0.0 | 0.0 | 0.00 | 0.00 | 0.00 | 35 | 1016.8 |
| 20260503183712 | 64 | 0 | 0.0 | 0.0 | 0.00 | 0.00 | 0.00 | 36 | 1017.0 |
| 20260503183211 | 64 | 0 | 0.0 | 0.0 | 0.00 | 0.00 | 0.00 | 35 | 1017.0 |
| 20260503182705 | 64 | 0 | 0.0 | 0.0 | 0.00 | 0.00 | 0.00 | 34 | 1017.3 |
| 20260503182205 | 64 | 0 | 0.0 | 0.0 | 0.00 | 0.00 | 0.00 | 37 | 1017.4 |
| 20260503181712 | 64 | 0 | 0.0 | 0.0 | 0.00 | 0.00 | 0.00 | 37 | 1017.3 |
| 20260503181200 | 63 | 0 | 0.0 | 0.0 | 0.00 | 0.00 | 0.00 | 36 | 1017.3 |
| 20260503180658 | 64 | 0 | 0.0 | 0.0 | 0.00 | 0.00 | 0.00 | 36 | 1017.4 |
| 20260503180158 | 63 | 118 | 0.0 | 0.0 | 0.00 | 0.00 | 0.00 | 35 | 1017.7 |
| 20260503175657 | 63 | 126 | 0.0 | 0.0 | 0.00 | 0.00 | 0.00 | 36 | 1017.7 |
| 20260503175156 | 62 | 126 | 0.0 | 0.0 | 0.00 | 0.00 | 0.00 | 35 | 1017.7 |
| 20260503174656 | 62 | 126 | 0.0 | 0.0 | 0.00 | 0.00 | 0.00 | 37 | 1017.8 |
| 20260503174152 | 62 | 126 | 0.0 | 0.0 | 0.00 | 0.00 | 0.00 | 34 | 1017.8 |
| 20260503173651 | 62 | 126 | 0.0 | 0.0 | 0.00 | 0.00 | 0.00 | 36 | 1018.0 |
| 20260503173150 | 63 | 126 | 0.0 | 0.0 | 0.00 | 0.00 | 0.00 | 37 | 1018.1 |
| 20260503172649 | 62 | 126 | 0.0 | 0.0 | 0.00 | 0.00 | 0.00 | 37 | 1018.0 |
| 20260503172150 | 61 | 126 | 0.0 | 0.0 | 0.00 | 0.00 | 0.00 | 36 | 1018.2 |
| 20260503171647 | 62 | 126 | 0.0 | 0.0 | 0.00 | 0.00 | 0.00 | 37 | 1018.4 |
| 20260503171141 | 62 | 126 | 0.0 | 0.0 | 0.00 | 0.00 | 0.00 | 36 | 1018.4 |
| 20260503170639 | 62 | 126 | 0.0 | 0.0 | 0.00 | 0.00 | 0.00 | 36 | 1018.5 |
| 20260503170356 | 62 | 126 | 0.0 | 0.0 | 0.00 | 0.00 | 0.00 | 38 | 1018.6 |